Year,Month,Day,Hour,Minute,Value (Times are PST for temperature in C)
2009,09,19,08,14,14.20
2009,09,19,08,15,14.20
2009,09,19,08,16,14.10
2009,09,19,08,17,14.10
2009,09,19,08,18,14.20
2009,09,19,08,19,14.20
2009,09,19,08,20,14.20
2009,09,19,08,21,14.20
2009,09,19,08,22,14.20
2009,09,19,08,23,14.20
2009,09,19,08,24,14.20
2009,09,19,08,25,14.10
2009,09,19,08,26,14.10
2009,09,19,08,27,14.10
2009,09,19,08,28,14.10
2009,09,19,08,29,14.10
2009,09,19,08,30,14.20
2009,09,19,08,31,14.20
2009,09,19,08,32,14.20
2009,09,19,08,33,14.20
2009,09,19,08,34,14.20
2009,09,19,08,35,14.20
2009,09,19,08,36,14.20
2009,09,19,08,37,14.20
2009,09,19,08,38,14.20
2009,09,19,08,39,14.30
2009,09,19,08,40,14.30
2009,09,19,08,41,14.20
2009,09,19,08,42,14.20
2009,09,19,08,43,14.20
2009,09,19,08,44,14.20
2009,09,19,08,45,14.20
2009,09,19,08,46,14.20
2009,09,19,08,47,14.30
2009,09,19,08,48,14.30
2009,09,19,08,49,14.30
2009,09,19,08,50,14.40
2009,09,19,08,51,14.40
2009,09,19,08,52,14.50
2009,09,19,08,53,14.50
2009,09,19,08,54,14.60
2009,09,19,08,55,14.70
2009,09,19,08,56,14.80
2009,09,19,08,57,14.90
2009,09,19,08,58,15.00
2009,09,19,08,59,15.00
2009,09,19,09,00,15.00
2009,09,19,09,01,15.00
2009,09,19,09,02,15.10
2009,09,19,09,03,15.10
2009,09,19,09,04,15.20
2009,09,19,09,05,15.20
2009,09,19,09,06,15.20
2009,09,19,09,07,15.10
2009,09,19,09,08,15.10
2009,09,19,09,09,15.00
2009,09,19,09,10,15.00
2009,09,19,09,11,15.00
2009,09,19,09,12,15.00
2009,09,19,09,13,15.00
2009,09,19,09,14,14.90
2009,09,19,09,15,14.80
2009,09,19,09,16,14.70
2009,09,19,09,17,14.70
2009,09,19,09,18,14.70
2009,09,19,09,19,14.60
2009,09,19,09,20,14.60
2009,09,19,09,21,14.60
2009,09,19,09,22,14.60
2009,09,19,09,23,14.60
2009,09,19,09,24,14.60
2009,09,19,09,25,14.60
2009,09,19,09,26,14.60
2009,09,19,09,27,14.70
2009,09,19,09,28,14.70
2009,09,19,09,29,14.80
2009,09,19,09,30,14.80
2009,09,19,09,31,14.90
2009,09,19,09,32,15.00
2009,09,19,09,33,15.00
2009,09,19,09,34,15.00
2009,09,19,09,35,15.00
2009,09,19,09,36,15.00
2009,09,19,09,37,15.10
2009,09,19,09,38,15.20
2009,09,19,09,39,15.20
2009,09,19,09,40,15.30
2009,09,19,09,41,15.30
2009,09,19,09,42,15.40
2009,09,19,09,43,15.40
2009,09,19,09,44,15.50
2009,09,19,09,45,15.50
2009,09,19,09,46,15.60
2009,09,19,09,47,15.60
2009,09,19,09,48,15.60
2009,09,19,09,49,15.70
2009,09,19,09,50,15.70
2009,09,19,09,51,15.80
2009,09,19,09,52,15.90
2009,09,19,09,53,16.00
2009,09,19,09,54,16.00
2009,09,19,09,55,16.10
2009,09,19,09,56,16.10
2009,09,19,09,57,16.10
2009,09,19,09,58,16.10
2009,09,19,09,59,16.10
2009,09,19,10,00,16.10
2009,09,19,10,01,16.10
2009,09,19,10,02,16.20
2009,09,19,10,03,16.20
2009,09,19,10,04,16.30
2009,09,19,10,05,16.30
2009,09,19,10,06,16.40
2009,09,19,10,07,16.40
2009,09,19,10,08,16.40
2009,09,19,10,09,16.50
2009,09,19,10,10,16.60
2009,09,19,10,11,16.70
2009,09,19,10,12,16.70
2009,09,19,10,13,16.70
2009,09,19,10,14,16.70
2009,09,19,10,15,16.70
2009,09,19,10,16,16.70
2009,09,19,10,17,16.70
2009,09,19,10,18,16.70
2009,09,19,10,19,16.60
2009,09,19,10,20,16.60
2009,09,19,10,21,16.60
2009,09,19,10,22,16.60
2009,09,19,10,23,16.60
2009,09,19,10,24,16.70
2009,09,19,10,25,16.70
2009,09,19,10,26,16.70
2009,09,19,10,27,16.70
2009,09,19,10,28,16.70
2009,09,19,10,29,16.70
2009,09,19,10,30,16.70
2009,09,19,10,31,16.70
2009,09,19,10,32,16.70
2009,09,19,10,33,16.80
2009,09,19,10,34,16.80
2009,09,19,10,35,16.80
2009,09,19,10,36,16.80
2009,09,19,10,37,16.80
2009,09,19,10,38,16.90
2009,09,19,10,39,16.90
2009,09,19,10,40,16.90
2009,09,19,10,41,16.90
2009,09,19,10,42,17.00
2009,09,19,10,43,17.00
2009,09,19,10,44,17.00
2009,09,19,10,45,17.00
2009,09,19,10,46,17.10
2009,09,19,10,47,17.10
2009,09,19,10,48,17.10
2009,09,19,10,49,17.10
2009,09,19,10,50,17.10
2009,09,19,10,51,17.20
2009,09,19,10,52,17.20
2009,09,19,10,53,17.20
2009,09,19,10,54,17.30
2009,09,19,10,55,17.30
2009,09,19,10,56,17.40
2009,09,19,10,57,17.40
2009,09,19,10,58,17.40
2009,09,19,10,59,17.40
2009,09,19,11,00,17.40
2009,09,19,11,01,17.40
2009,09,19,11,02,17.50
2009,09,19,11,03,17.50
2009,09,19,11,04,17.50
2009,09,19,11,05,17.50
2009,09,19,11,06,17.60
2009,09,19,11,07,17.60
2009,09,19,11,08,17.70
2009,09,19,11,09,17.80
2009,09,19,11,10,17.80
2009,09,19,11,11,17.80
2009,09,19,11,12,17.80
2009,09,19,11,13,17.80
2009,09,19,11,14,17.80
2009,09,19,11,15,17.80
2009,09,19,11,16,17.80
2009,09,19,11,17,17.80
2009,09,19,11,18,17.80
2009,09,19,11,19,17.90
2009,09,19,11,20,17.90
2009,09,19,11,21,17.90
2009,09,19,11,22,18.00
2009,09,19,11,23,18.00
2009,09,19,11,24,18.00
2009,09,19,11,25,18.10
2009,09,19,11,26,18.10
2009,09,19,11,27,18.10
2009,09,19,11,28,18.20
2009,09,19,11,29,18.10
2009,09,19,11,30,18.10
2009,09,19,11,31,18.10
2009,09,19,11,32,18.20
2009,09,19,11,33,18.20
2009,09,19,11,34,18.20
2009,09,19,11,35,18.20
2009,09,19,11,36,18.20
2009,09,19,11,37,18.20
2009,09,19,11,38,18.20
2009,09,19,11,39,18.20
2009,09,19,11,40,18.30
2009,09,19,11,41,18.40
2009,09,19,11,42,18.40
2009,09,19,11,43,18.50
2009,09,19,11,44,18.50
2009,09,19,11,45,18.50
2009,09,19,11,46,18.60
2009,09,19,11,47,18.60
2009,09,19,11,48,18.70
2009,09,19,11,49,18.70
2009,09,19,11,50,18.70
2009,09,19,11,51,18.70
2009,09,19,11,52,18.70
2009,09,19,11,53,18.70
2009,09,19,11,54,18.70
2009,09,19,11,55,18.70
2009,09,19,11,56,18.80
2009,09,19,11,57,18.80
2009,09,19,11,58,18.80
2009,09,19,11,59,18.90
2009,09,19,12,00,19.00
2009,09,19,12,01,19.00
2009,09,19,12,02,19.10
2009,09,19,12,03,19.20
2009,09,19,12,04,19.10
2009,09,19,12,05,19.20
2009,09,19,12,06,19.20
2009,09,19,12,07,19.20
2009,09,19,12,08,19.20
2009,09,19,12,09,19.20
2009,09,19,12,10,19.20
2009,09,19,12,11,19.10
2009,09,19,12,12,19.10
2009,09,19,12,13,19.00
2009,09,19,12,14,19.00
2009,09,19,12,15,18.90
2009,09,19,12,16,18.90
2009,09,19,12,17,18.90
2009,09,19,12,18,18.90
2009,09,19,12,19,18.90
2009,09,19,12,20,18.90
2009,09,19,12,21,19.00
2009,09,19,12,22,19.10
2009,09,19,12,23,19.00
2009,09,19,12,24,18.90
2009,09,19,12,25,18.90
2009,09,19,12,26,19.00
2009,09,19,12,27,19.00
2009,09,19,12,28,19.10
2009,09,19,12,29,19.10
2009,09,19,12,30,19.10
2009,09,19,12,31,19.20
2009,09,19,12,32,19.20
2009,09,19,12,33,19.20
2009,09,19,12,34,19.20
2009,09,19,12,35,19.20
2009,09,19,12,36,19.10
2009,09,19,12,37,19.10
2009,09,19,12,38,19.10
2009,09,19,12,39,19.20
2009,09,19,12,40,19.20
2009,09,19,12,41,19.30
2009,09,19,12,42,19.30
2009,09,19,12,43,19.30
2009,09,19,12,44,19.40
2009,09,19,12,45,19.40
2009,09,19,12,46,19.40
2009,09,19,12,47,19.40
2009,09,19,12,48,19.50
2009,09,19,12,49,19.50
2009,09,19,12,50,19.50
2009,09,19,12,51,19.60
2009,09,19,12,52,19.60
2009,09,19,12,53,19.60
2009,09,19,12,54,19.60
2009,09,19,12,55,19.50
2009,09,19,12,56,19.50
2009,09,19,12,57,19.40
2009,09,19,12,58,19.40
2009,09,19,12,59,19.30
2009,09,19,13,00,19.30
2009,09,19,13,01,19.30
2009,09,19,13,02,19.30
2009,09,19,13,03,19.30
2009,09,19,13,04,19.30
2009,09,19,13,05,19.40
2009,09,19,13,06,19.40
2009,09,19,13,07,19.40
2009,09,19,13,08,19.40
2009,09,19,13,09,19.40
2009,09,19,13,10,19.40
2009,09,19,13,11,19.40
2009,09,19,13,12,19.50
2009,09,19,13,13,19.60
2009,09,19,13,14,19.60
2009,09,19,13,15,19.70
2009,09,19,13,16,19.70
2009,09,19,13,17,19.70
2009,09,19,13,18,19.70
2009,09,19,13,19,19.70
2009,09,19,13,20,19.70
2009,09,19,13,21,19.70
2009,09,19,13,22,19.70
2009,09,19,13,23,19.70
2009,09,19,13,24,19.70
2009,09,19,13,25,19.60
2009,09,19,13,26,19.60
2009,09,19,13,27,19.60
2009,09,19,13,28,19.60
2009,09,19,13,29,19.70
2009,09,19,13,30,19.70
2009,09,19,13,31,19.70
2009,09,19,13,32,19.80
2009,09,19,13,33,19.80
2009,09,19,13,34,19.90
2009,09,19,13,35,19.90
2009,09,19,13,36,19.90
2009,09,19,13,37,20.00
2009,09,19,13,38,20.00
2009,09,19,13,39,20.10
2009,09,19,13,40,20.10
2009,09,19,13,41,20.10
2009,09,19,13,42,20.20
2009,09,19,13,43,20.20
2009,09,19,13,44,20.20
2009,09,19,13,45,20.20
2009,09,19,13,46,20.30
2009,09,19,13,47,20.30
2009,09,19,13,48,20.30
2009,09,19,13,49,20.30
2009,09,19,13,50,20.20
2009,09,19,13,51,20.10
2009,09,19,13,52,20.10
2009,09,19,13,53,20.10
2009,09,19,13,54,20.10
2009,09,19,13,55,20.20
2009,09,19,13,56,20.10
2009,09,19,13,57,20.10
2009,09,19,13,58,20.00
2009,09,19,13,59,20.00
2009,09,19,14,00,20.00
2009,09,19,14,01,19.90
2009,09,19,14,02,19.90
2009,09,19,14,03,19.80
2009,09,19,14,04,19.70
2009,09,19,14,05,19.60
2009,09,19,14,06,19.40
2009,09,19,14,07,19.30
2009,09,19,14,08,19.20
2009,09,19,14,09,19.10
2009,09,19,14,10,19.00
2009,09,19,14,11,18.90
2009,09,19,14,12,18.80
2009,09,19,14,13,18.80
2009,09,19,14,14,18.80
2009,09,19,14,15,18.80
2009,09,19,14,16,18.80
2009,09,19,14,17,18.80
2009,09,19,14,18,18.80
2009,09,19,14,19,18.80
2009,09,19,14,20,18.80
2009,09,19,14,21,18.70
2009,09,19,14,22,18.70
2009,09,19,14,23,18.80
2009,09,19,14,24,18.90
2009,09,19,14,25,18.90
2009,09,19,14,26,18.90
2009,09,19,14,27,19.00
2009,09,19,14,28,19.10
2009,09,19,14,29,19.20
2009,09,19,14,30,19.30
2009,09,19,14,31,19.30
2009,09,19,14,32,19.40
2009,09,19,14,33,19.40
2009,09,19,14,34,19.50
2009,09,19,14,35,19.50
2009,09,19,14,36,19.60
2009,09,19,14,37,19.60
2009,09,19,14,38,19.60
2009,09,19,14,39,19.50
2009,09,19,14,40,19.50
2009,09,19,14,41,19.40
2009,09,19,14,42,19.40
2009,09,19,14,43,19.50
2009,09,19,14,44,19.50
2009,09,19,14,45,19.50
2009,09,19,14,46,19.50
2009,09,19,14,47,19.60
2009,09,19,14,48,19.60
2009,09,19,14,49,19.60
2009,09,19,14,50,19.60
2009,09,19,14,51,19.60
2009,09,19,14,52,19.70
2009,09,19,14,53,19.70
2009,09,19,14,54,19.80
2009,09,19,14,55,19.80
2009,09,19,14,56,19.80
2009,09,19,14,57,19.80
2009,09,19,14,58,19.80
2009,09,19,14,59,19.90
2009,09,19,15,00,19.90
2009,09,19,15,01,19.90
2009,09,19,15,02,19.90
2009,09,19,15,03,19.90
2009,09,19,15,04,19.80
2009,09,19,15,05,19.70
2009,09,19,15,06,19.60
2009,09,19,15,07,19.40
2009,09,19,15,08,19.30
2009,09,19,15,09,19.20
2009,09,19,15,10,19.10
2009,09,19,15,11,19.10
2009,09,19,15,12,19.00
2009,09,19,15,13,18.90
2009,09,19,15,14,18.90
2009,09,19,15,15,18.90
2009,09,19,15,16,18.90
2009,09,19,15,17,18.80
2009,09,19,15,18,18.80
2009,09,19,15,19,18.80
2009,09,19,15,20,18.80
2009,09,19,15,21,18.80
2009,09,19,15,22,18.80
2009,09,19,15,23,18.80
2009,09,19,15,24,18.80
2009,09,19,15,25,18.90
2009,09,19,15,26,18.90
2009,09,19,15,27,18.90
2009,09,19,15,28,19.00
2009,09,19,15,29,19.00
2009,09,19,15,30,19.00
2009,09,19,15,31,19.00
2009,09,19,15,32,18.90
2009,09,19,15,33,18.90
2009,09,19,15,34,18.90
2009,09,19,15,35,18.90
2009,09,19,15,36,18.90
2009,09,19,15,37,19.00
2009,09,19,15,38,19.10
2009,09,19,15,39,19.20
2009,09,19,15,40,19.30
2009,09,19,15,41,19.40
2009,09,19,15,42,19.40
2009,09,19,15,43,19.50
2009,09,19,15,44,19.60
2009,09,19,15,45,19.70
2009,09,19,15,46,19.70
2009,09,19,15,47,19.70
2009,09,19,15,48,19.70
2009,09,19,15,49,19.70
2009,09,19,15,50,19.60
2009,09,19,15,51,19.60
2009,09,19,15,52,19.60
2009,09,19,15,53,19.60
2009,09,19,15,54,19.60
2009,09,19,15,55,19.60
2009,09,19,15,56,19.60
2009,09,19,15,57,19.60
2009,09,19,15,58,19.70
2009,09,19,15,59,19.70
2009,09,19,16,00,19.70
2009,09,19,16,01,19.70
2009,09,19,16,02,19.60
2009,09,19,16,03,19.50
2009,09,19,16,04,19.50
2009,09,19,16,05,19.40
2009,09,19,16,06,19.30
2009,09,19,16,07,19.30
2009,09,19,16,08,19.30
2009,09,19,16,09,19.30
2009,09,19,16,10,19.30
2009,09,19,16,11,19.30
2009,09,19,16,12,19.40
2009,09,19,16,13,19.40
2009,09,19,16,14,19.40
2009,09,19,16,15,19.40
2009,09,19,16,16,19.40
2009,09,19,16,17,19.50
2009,09,19,16,18,19.50
2009,09,19,16,19,19.60
2009,09,19,16,20,19.60
2009,09,19,16,21,19.60
2009,09,19,16,22,19.60
2009,09,19,16,23,19.60
2009,09,19,16,24,19.60
2009,09,19,16,25,19.60
2009,09,19,16,26,19.60
2009,09,19,16,27,19.60
2009,09,19,16,28,19.60
2009,09,19,16,29,19.60
2009,09,19,16,30,19.70
2009,09,19,16,31,19.70
2009,09,19,16,32,19.60
2009,09,19,16,33,19.60
2009,09,19,16,34,19.60
2009,09,19,16,35,19.60
2009,09,19,16,36,19.60
2009,09,19,16,37,19.50
2009,09,19,16,38,19.50
2009,09,19,16,39,19.40
2009,09,19,16,40,19.30
2009,09,19,16,41,19.20
2009,09,19,16,42,19.10
2009,09,19,16,43,19.10
2009,09,19,16,44,19.10
2009,09,19,16,45,19.00
2009,09,19,16,46,18.90
2009,09,19,16,47,18.90
2009,09,19,16,48,18.80
2009,09,19,16,49,18.80
2009,09,19,16,50,18.80
2009,09,19,16,51,18.70
2009,09,19,16,52,18.50
2009,09,19,16,53,18.50
2009,09,19,16,54,18.40
2009,09,19,16,55,18.40
2009,09,19,16,56,18.40
2009,09,19,16,57,18.50
2009,09,19,16,58,18.60
2009,09,19,16,59,18.60
2009,09,19,17,00,18.60
2009,09,19,17,01,18.70
2009,09,19,17,02,18.80
2009,09,19,17,03,18.80
2009,09,19,17,04,18.80
2009,09,19,17,05,18.90
2009,09,19,17,06,18.90
2009,09,19,17,07,18.90
2009,09,19,17,08,18.90
2009,09,19,17,09,18.90
2009,09,19,17,10,18.90
2009,09,19,17,11,18.80
2009,09,19,17,12,18.80
2009,09,19,17,13,18.80
2009,09,19,17,14,18.80
2009,09,19,17,15,18.80
2009,09,19,17,16,18.80
2009,09,19,17,17,18.80
2009,09,19,17,18,18.80
2009,09,19,17,19,18.80
2009,09,19,17,20,18.80
2009,09,19,17,21,18.80
2009,09,19,17,22,18.80
2009,09,19,17,23,18.80
2009,09,19,17,24,18.80
2009,09,19,17,25,18.80
2009,09,19,17,26,18.80
2009,09,19,17,27,18.80
2009,09,19,17,28,18.70
2009,09,19,17,29,18.70
2009,09,19,17,30,18.70
2009,09,19,17,31,18.70
2009,09,19,17,32,18.70
2009,09,19,17,33,18.70
2009,09,19,17,34,18.60
2009,09,19,17,35,18.60
2009,09,19,17,36,18.60
2009,09,19,17,37,18.60
2009,09,19,17,38,18.60
2009,09,19,17,39,18.60
2009,09,19,17,40,18.60
2009,09,19,17,41,18.50
2009,09,19,17,42,18.40
2009,09,19,17,43,18.40
2009,09,19,17,44,18.40
2009,09,19,17,45,18.40
2009,09,19,17,46,18.40
2009,09,19,17,47,18.40
2009,09,19,17,48,18.40
2009,09,19,17,49,18.40
2009,09,19,17,50,18.40
2009,09,19,17,51,18.40
2009,09,19,17,52,18.40
